Content
SEND FEEDBACK

Daily
Averages
Monthly
Summary
Canada

HAMILTON, ONTARIO


Home > North America > Canada > Ontario
Elevation: 776 feet     Latitude: 43 10N     Longitude: 079 55W

WEATHER
 
SELECT A DAY
Number of Records: 167,892;   Date Range: 1/1/95 - 8/31/14
 
SHARE

PRINT THIS DATA

[ ← Previous Day ]
WEATHER ALMANAC - OCTOBER 12, 2013
[ Next Day → ]
[ °C ]   °F
Weather ElementAverageHighLow
Temperature55.6 °F67 °F (2:00 pm)46.4 °F (4:00 am)
Dewpoint50.3 °F56 °F (2:00 pm)42.8 °F (4:00 am)
Humidity82.7 %94 % (8:00 am)58 % (2:00 pm)
Barometer30.16 in30.19 in (8:46 am)30.13 in (5:00 pm)
Wind Speed9.5 mph13.8 mph (5:00 pm)
Weather ElementAverage
Visibility13.1 mi
Wind DirectionNE (44.3 °)

Weather ElementTotal
Precipitation---
Heating Degree Days8.3 (Base 65)
Growing Degree Days6.7 (Base 50)
Averaged from 30 records on October 12, 2013
WEATHER CONDITIONS BREAKOUT
WIND DIRECTION BREAKOUT
WEATHER BY HOUR - OCTOBER 12, 2013
[ °C ]   °F
Local TimeTemperatureDewpointHumidityBarometerVisibilityWind DirectionWind SpeedGust SpeedPrecipitationEventsConditions
1:00 AM50.0 °F46.4 °F87 %30.14 in15.0 miNE (40°)6.9 mphClear
2:00 AM49.0 °F47.0 °F92 %30.14 in15.0 miNE (40°)6.9 mph
2:00 AM50.0 °F46.4 °F87 %30.14 in15.0 miNE (40°)6.9 mphClear
3:00 AM48.2 °F44.6 °F87 %30.14 in15.0 miNE (40°)8.1 mphPartly Cloudy
4:00 AM46.4 °F42.8 °F87 %30.14 in15.0 miNE (50°)9.2 mphPartly Cloudy
5:00 AM46.4 °F42.8 °F87 %30.14 in15.0 miNE (50°)9.2 mphPartly Cloudy
6:00 AM48.2 °F44.6 °F87 %30.15 in15.0 miNE (40°)9.2 mphClear
6:50 AM46.4 °F44.6 °F93 %30.17 in10.0 miNE (40°)6.9 mphPartly Cloudy
7:00 AM48.2 °F44.6 °F87 %30.17 in8.0 miENE (60°)8.1 mphScattered Clouds
7:08 AM46.4 °F44.6 °F93 %30.17 in7.0 miENE (60°)8.1 mphMostly Cloudy
8:00 AM52.0 °F51.0 °F93 %30.18 in4.0 miNE (40°)9.2 mphMist
8:00 AM51.8 °F50.0 °F94 %30.18 in4.0 miNE (50°)9.2 mphMostly Cloudy
8:46 AM53.6 °F50.0 °F88 %30.19 in7.0 miNE (50°)9.2 mphPartly Cloudy
9:00 AM53.6 °F51.8 °F94 %30.19 in7.0 miNE (50°)11.5 mphScattered Clouds
10:00 AM57.2 °F51.8 °F82 %30.19 in15.0 miENE (60°)12.7 mphMostly Cloudy
11:00 AM60.8 °F51.8 °F72 %30.18 in15.0 miNE (50°)10.4 mphPartly Cloudy
12:00 PM64.4 °F53.6 °F68 %30.18 in15.0 miENE (60°)8.1 mphPartly Cloudy
1:00 PM66.2 °F53.6 °F64 %30.17 in15.0 miNE (50°)8.1 mphPartly Cloudy
2:00 PM67.0 °F56.0 °F58 %30.15 in15.0 miNE (40°)10.4 mphScattered Clouds
2:00 PM66.2 °F55.4 °F68 %30.14 in15.0 miNE (40°)11.5 mphPartly Cloudy
3:00 PM66.2 °F55.4 °F68 %30.15 in15.0 miNE (40°)11.5 mphPartly Cloudy
4:00 PM64.4 °F53.6 °F68 %30.14 in15.0 miNE (50°)12.7 mphPartly Cloudy
5:00 PM64.4 °F51.8 °F64 %30.13 in15.0 miNE (40°)13.8 mphPartly Cloudy
6:00 PM60.8 °F53.6 °F77 %30.13 in15.0 miNE (40°)10.4 mphPartly Cloudy
7:00 PM57.2 °F53.6 °F88 %30.14 in15.0 miNNE (30°)9.2 mphPartly Cloudy
8:00 PM57.0 °F54.0 °F84 %30.14 in15.0 miNNE (30°)10.4 mphScattered Clouds
8:00 PM57.2 °F53.6 °F88 %30.14 in15.0 miNNE (30°)9.2 mphPartly Cloudy
9:00 PM57.2 °F53.6 °F88 %30.15 in15.0 miNNE (30°)9.2 mphPartly Cloudy
10:00 PM55.4 °F53.6 °F94 %30.15 in15.0 miNE (40°)8.1 mphScattered Clouds
11:00 PM55.4 °F53.6 °F94 %30.14 in15.0 miNE (50°)9.2 mphMostly Cloudy
Hourly data recorded from CYHM, located miles away from Hamilton, Ontario







STORIES FROM OUR PARTNERS